Lake Worth Weather Center

Moon Phase Calendar



Lake Worth Water Level
Online Cameras

 


      

Current Conditions in Lake Worth
1/20/2022 7:42:42 PM

30°F
Feels Like 24
Clouds
Humidity
36%
Pressure
30.5"
Wind
5 mph (NNW)
Dew Point
8°F
UV Index
0/10 (Low)
Visibility
6 mi

Hourly Forecast

Date & Time Thu, Jan 20
7:00 PM
Thu, Jan 20
8:00 PM
Thu, Jan 20
9:00 PM
Thu, Jan 20
10:00 PM
Thu, Jan 20
11:00 PM
Fri, Jan 21
12:00 AM
Fri, Jan 21
1:00 AM
Fri, Jan 21
2:00 AM
Fri, Jan 21
3:00 AM
Fri, Jan 21
4:00 AM
Fri, Jan 21
5:00 AM
Fri, Jan 21
6:00 AM
Fri, Jan 21
7:00 AM
Fri, Jan 21
8:00 AM
Fri, Jan 21
9:00 AM
Fri, Jan 21
10:00 AM
Fri, Jan 21
11:00 AM
Fri, Jan 21
12:00 PM
Fri, Jan 21
1:00 PM
Fri, Jan 21
2:00 PM
Fri, Jan 21
3:00 PM
Fri, Jan 21
4:00 PM
Fri, Jan 21
5:00 PM
Fri, Jan 21
6:00 PM
Fri, Jan 21
7:00 PM
Fri, Jan 21
8:00 PM
Fri, Jan 21
9:00 PM
Fri, Jan 21
10:00 PM
Fri, Jan 21
11:00 PM
Sat, Jan 22
12:00 AM
Sat, Jan 22
1:00 AM
Sat, Jan 22
2:00 AM
Sat, Jan 22
3:00 AM
Sat, Jan 22
4:00 AM
Sat, Jan 22
5:00 AM
Sat, Jan 22
6:00 AM
Sat, Jan 22
7:00 AM
Sat, Jan 22
8:00 AM
Sat, Jan 22
9:00 AM
Sat, Jan 22
10:00 AM
Sat, Jan 22
11:00 AM
Sat, Jan 22
12:00 PM
Sat, Jan 22
1:00 PM
Sat, Jan 22
2:00 PM
Sat, Jan 22
3:00 PM
Sat, Jan 22
4:00 PM
Sat, Jan 22
5:00 PM
Sat, Jan 22
6:00 PM
Condition
Clouds

Clouds

Clouds

Clouds

Clouds

Clouds

Clear

Clear

Clear

Clear

Clear

Clear

Clear

Clear

Clear

Clear

Clear

Clear

Clear

Clear

Clear

Clear

Clear

Clear

Clear

Clear

Clear

Clear

Clear

Clear

Clear

Clear

Clear

Clear

Clear

Clear

Clear

Clear

Clear

Clear

Clear

Clear

Clear

Clear

Clear

Clear

Clear

Clear
Temperature 30°F30°F29°F29°F28°F27°F25°F25°F24°F24°F23°F23°F23°F23°F26°F29°F32°F35°F38°F39°F41°F41°F40°F37°F36°F36°F35°F35°F35°F34°F33°F32°F31°F31°F30°F30°F29°F30°F35°F38°F41°F43°F46°F47°F48°F49°F48°F44°F
Feels Like 19°F19°F20°F20°F19°F17°F16°F16°F16°F16°F15°F15°F15°F16°F19°F24°F28°F31°F33°F35°F37°F37°F37°F33°F32°F32°F31°F30°F30°F29°F28°F28°F27°F27°F26°F27°F26°F27°F35°F38°F41°F42°F46°F47°F48°F49°F47°F41°F
Cloudiness 82%81%77%69%59%47%10%9%9%9%9%9%7%7%6%6%4%4%0%0%0%0%0%0%0%0%0%0%0%0%0%0%0%1%0%0%0%1%1%1%1%1%0%0%0%0%0%0%
Visibility 6 mi6 mi6 mi6 mi6 mi6 mi6 mi6 mi6 mi6 mi6 mi6 mi6 mi6 mi6 mi6 mi6 mi6 mi6 mi6 mi6 mi6 mi6 mi6 mi6 mi6 mi6 mi6 mi6 mi6 mi6 mi6 mi6 mi6 mi6 mi6 mi6 mi6 mi6 mi6 mi6 mi6 mi6 mi6 mi6 mi6 mi6 mi6 mi
Precipitation 0%0%0%0%0%0%0%0%0%0%0%0%0%0%0%0%0%0%0%0%0%0%0%0%0%0%0%0%0%0%0%0%0%0%0%0%0%0%0%0%0%0%0%0%0%0%0%0%
Humidity 33%36%33%32%30%29%29%30%31%32%33%33%34%34%29%25%22%21%21%21%22%23%24%28%29%30%32%34%36%38%40%42%44%45%46%47%48%46%39%34%31%29%28%28%27%28%29%33%
Dew Point 7°F8°F7°F5°F3°F2°F-3°F-3°F-3°F-3°F-2°F-2°F-2°F-2°F-3°F-3°F-3°F-1°F1°F3°F4°F5°F6°F6°F7°F7°F8°F9°F10°F11°F11°F11°F11°F12°F12°F12°F12°F12°F12°F12°F12°F13°F14°F15°F16°F16°F17°F16°F
Pressure 30.5"30.5"30.5"30.5"30.53"30.53"30.5"30.5"30.5"30.5"30.47"30.5"30.5"30.53"30.53"30.53"30.5"30.47"30.42"30.39"30.36"30.36"30.36"30.36"30.39"30.42"30.42"30.42"30.42"30.42"30.45"30.45"30.45"30.45"30.45"30.47"30.5"30.5"30.53"30.53"30.53"30.5"30.45"30.42"30.39"30.39"30.36"30.36"
Wind Speed 13.7 mph13 mph11.5 mph9.7 mph10.3 mph10 mph9.6 mph8.5 mph7.2 mph6.4 mph7.3 mph6.4 mph6.3 mph5.8 mph5.9 mph5.2 mph4.9 mph4.6 mph5.4 mph5.5 mph4.6 mph5.8 mph5.6 mph5.5 mph5.6 mph5.1 mph5 mph5.4 mph5.8 mph6 mph5.4 mph4.7 mph4.2 mph3.8 mph3.7 mph3.1 mph3.4 mph3.1 mph2.9 mph2.7 mph2.6 mph3.4 mph2.1 mph1 mph2.1 mph2.5 mph3.8 mph5 mph
Wind
Direction
20°
NNE
20°
NNE
20°
NNE
20°
NNE
19°
NNE
16°
NNE
10°
N

N

N

N

N

N
14°
NNE
18°
NNE
43°
NE
51°
NE
55°
NE
65°
ENE
74°
ENE
85°
E
88°
E
90°
E
101°
E
85°
E
79°
E
91°
E
108°
ESE
115°
ESE
113°
ESE
117°
ESE
121°
ESE
114°
ESE
124°
SE
126°
SE
128°
SE
122°
ESE
113°
ESE
113°
ESE
115°
ESE
108°
ESE
127°
SE
145°
SE
117°
ESE
77°
ENE
83°
E
88°
E
91°
E
105°
ESE

Daily Forecast

Date High Low Precip. Humidity
Today
Jan 20

Clouds
36 °F
25 °F
0%
25%
Friday
Jan 21

Clear
41 °F
23 °F
0%
21%
Saturday
Jan 22

Clear
48 °F
29 °F
0%
29%
Sunday
Jan 23

Clouds
62 °F
38 °F
0%
29%
Monday
Jan 24

Rain
51 °F
46 °F
99%
92%
Tuesday
Jan 25

Clouds
47 °F
37 °F
18%
42%
Wednesday
Jan 26

Clouds
44 °F
30 °F
0%
51%
Thursday
Jan 27

Clear
55 °F
34 °F
0%
36%
Friday
Jan 28

Clear
60 °F
42 °F
0%
28%
Saturday
Jan 29

Clear
65 °F
41 °F
0%
35%
Sunday
Jan 30

Clouds
67 °F
46 °F
0%
55%
Monday
Jan 31

Rain
58 °F
36 °F
56%
53%
Tuesday
Feb 1

Clouds
41 °F
29 °F
0%
36%
Wednesday
Feb 2

Clouds
47 °F
40 °F
0%
77%
Thursday
Feb 3

Clouds
76 °F
44 °F
0%
73%
Friday
Feb 4

Rain
65 °F
53 °F
65%
54%

Temperature 8-14 Day Outlook



Precipitation 8-14 Day Outlook




Quick Links
Lake Worth News
Lake Worth Photos
Lake Worth Videos




About Us
Contact Us
Site Map
Search Site
Advertise With Us
   
Worth.LakesOnline.com
THE LAKE WORTH WEBSITE

Copyright 2022, Lakes Online
Privacy    |    Legal